Погода в Болчарах

Россия / Ханты-Мансийский автономный округ - Югра     59°48′51″N   68°48′42″E
темп.,
°C
ветер,
м/с
пор.,
м/с
влажн.,
%
обл.,
%
осадки,
мм/ч
давл.,
гПа
погр.,
м
23 апреля, пт
пт2323:00+3ююв614685 0.0 1036344
02:00+2ююв51471100 0.0 1035339
05:00+2ю51373100 0.0 1034350
08:00+4ю61266100 0.0 1035473
11:00+9ю61057100 0.0 1033652
14:00+11ююз61055100 0.0 10331151
17:00+11ю61160100 0.0 1032924
20:00+9ю51166100 0.0 1032384
24 апреля, сб
сб2423:00+7ююв3873100 0.1 1031198
02:00+6ю41171100 0.6 1030521
05:00+5ю4985100 1.6 1030419
08:00+4ю3690100 0.8 1029355
11:00+5ю3782100 1.2 1029441
14:00+6ю3683100 0.1 1028349
17:00+9зюз026799 0.1 1027556
20:00+6всв348886 0.0 102669
25 апреля, вс
вс2523:00+4вюв348989 0.0 102684
02:00+3ююв227759 0.0 102519
05:00+2юв228089 0.0 102531
08:00+6юв3764100 0.0 1024296
11:00+10юв5744100 0.0 10231223
14:00+12юв5836100 0.0 10212287
17:00+11юв6844100 0.0 10211920
20:00+8юв4861100 0.0 1020278
26 апреля, пн
пн2623:00+7юв51166100 0.0 1018615
02:00+6вюв61274100 0.1 1016555
05:00+5вюв61366100 0.1 1013560
08:00+7юв61063100 0.0 10101049
11:00+6юз51184100 0.5 1010980
14:00+10зюз61061100 0.4 10101691
17:00+10зюз695390 0.7 10111733
20:00+7зюз486883 0.4 1011190
27 апреля, вт
вт2723:00+5юз4117635 0.8 1012302
02:00+4юз411795 0.1 1012287
05:00+2юз410860 0.1 1012253
08:00+6юз58660 0.0 1012494
11:00+11зюз6104856 0.0 10111857
14:00+12зюз7103996 0.0 10102249
17:00+13зюз583686 0.0 10082478
20:00+9юз3454100 0.0 100856